• In Hungary
  • List of Countries
  • For 7 days
  • Water Temperature
  • Satellite Maps
  • Weather Map
  • News
  • Weather Widgets
  • user-avatar
    Login

    Hourly Weather Stanychne

    Today, 21 June, Thursday

    Time Temperature Precipitation Wind Pressure Humidity
    00:00 +18°C° 0 mm 2 mps 751 mmHg 90%
    01:00 +18°C° 0 mm 1 mps 751 mmHg 90%
    02:00 +18°C° 0 mm 1 mps 751 mmHg 90%
    03:00 +18°C° 0 mm 1 mps 751 mmHg 89%
    04:00 +18°C° 0 mm 1 mps 751 mmHg 88%
    05:00 +19°C° 0 mm 1 mps 751 mmHg 87%
    06:00 +19°C° 0 mm 2 mps 751 mmHg 81%
    07:00 +21°C° 0 mm 2 mps 751 mmHg 75%
    08:00 +24°C° 0 mm 2 mps 751 mmHg 69%
    09:00 +25°C° 0 mm 2 mps 751 mmHg 65%
    10:00 +26°C° 0 mm 2 mps 751 mmHg 60%
    11:00 +27°C° 0 mm 2 mps 751 mmHg 56%
    12:00 +27°C° 0 mm 2 mps 751 mmHg 55%
    13:00 +28°C° 0 mm 2 mps 750 mmHg 54%
    14:00 +28°C° 0 mm 2 mps 750 mmHg 53%
    15:00 +28°C° 0 mm 1 mps 750 mmHg 54%
    16:00 +28°C° 0 mm 1 mps 749 mmHg 55%
    17:00 +28°C° 0 mm 1 mps 749 mmHg 56%
    18:00 +26°C° 0 mm 1 mps 749 mmHg 61%
    19:00 +22°C° 0 mm 0 mps 749 mmHg 67%
    20:00 +20°C° 0 mm 0 mps 749 mmHg 72%
    21:00 +22°C° 0 mm 1 mps 749 mmHg 74%
    22:00 +21°C° 0 mm 1 mps 749 mmHg 76%
    23:00 +21°C° 0 mm 1 mps 749 mmHg 77%

    Tomorrow, 22 June, Friday

    Time Temperature Precipitation Wind Pressure Humidity
    00:00 +20°C° 0 mm 2 mps 749 mmHg 79%
    01:00 +19°C° 0 mm 2 mps 748 mmHg 81%
    02:00 +19°C° 0 mm 2 mps 748 mmHg 82%
    03:00 +19°C° 0 mm 2 mps 748 mmHg 83%
    04:00 +19°C° 0 mm 2 mps 748 mmHg 84%
    05:00 +19°C° 0 mm 2 mps 748 mmHg 84%
    06:00 +21°C° 0 mm 3 mps 748 mmHg 79%
    07:00 +24°C° 0 mm 3 mps 748 mmHg 74%
    08:00 +26°C° 0 mm 4 mps 748 mmHg 69%
    09:00 +27°C° 0 mm 4 mps 747 mmHg 65%
    10:00 +28°C° 0 mm 4 mps 747 mmHg 60%
    11:00 +29°C° 0 mm 4 mps 747 mmHg 56%
    12:00 +29°C° 0 mm 4 mps 747 mmHg 55%
    13:00 +30°C° 0 mm 4 mps 746 mmHg 55%
    14:00 +30°C° 0 mm 4 mps 746 mmHg 54%
    15:00 +30°C° 0 mm 3 mps 746 mmHg 57%
    16:00 +30°C° 0 mm 3 mps 745 mmHg 60%
    17:00 +29°C° 0 mm 2 mps 745 mmHg 64%
    18:00 +28°C° 0.1 mm 2 mps 745 mmHg 67%
    19:00 +26°C° 0.1 mm 2 mps 745 mmHg 70%
    20:00 +25°C° 0.1 mm 2 mps 745 mmHg 73%
    21:00 +25°C° 0.1 mm 2 mps 745 mmHg 73%
    22:00 +24°C° 0.1 mm 2 mps 745 mmHg 73%
    23:00 +23°C° 0.1 mm 2 mps 744 mmHg 74%

    Day after tomorrow, 23 June, Saturday

    Time Temperature Precipitation Wind Pressure Humidity
    00:00 +23°C° 0.2 mm 2 mps 744 mmHg 75%
    01:00 +21°C° 0.2 mm 2 mps 744 mmHg 77%
    02:00 +21°C° 0.2 mm 3 mps 744 mmHg 79%
    03:00 +21°C° 0.7 mm 2 mps 744 mmHg 81%
    04:00 +20°C° 0.7 mm 2 mps 744 mmHg 83%
    05:00 +21°C° 0.7 mm 1 mps 743 mmHg 85%
    06:00 +21°C° 0.4 mm 2 mps 743 mmHg 84%
    07:00 +22°C° 0.4 mm 3 mps 743 mmHg 82%
    08:00 +22°C° 0.4 mm 4 mps 743 mmHg 81%
    09:00 +23°C° 0.4 mm 4 mps 743 mmHg 78%
    10:00 +25°C° 0.4 mm 4 mps 743 mmHg 76%
    11:00 +26°C° 0.4 mm 5 mps 743 mmHg 73%
    12:00 +25°C° 1.6 mm 5 mps 743 mmHg 77%
    13:00 +23°C° 1.6 mm 5 mps 743 mmHg 81%
    14:00 +22°C° 1.6 mm 4 mps 743 mmHg 85%
    15:00 +21°C° 0.6 mm 5 mps 743 mmHg 87%
    16:00 +20°C° 0.6 mm 5 mps 743 mmHg 89%
    17:00 +17°C° 0.6 mm 5 mps 744 mmHg 90%
    18:00 +16°C° 0.2 mm 5 mps 744 mmHg 89%
    19:00 +16°C° 0.2 mm 5 mps 744 mmHg 89%
    20:00 +15°C° 0.2 mm 5 mps 745 mmHg 88%
    21:00 +14°C° 0 mm 5 mps 745 mmHg 88%
    22:00 +13°C° 0 mm 5 mps 745 mmHg 87%
    23:00 +12°C° 0 mm 5 mps 746 mmHg 87%

    24 June, Sunday

    Time Temperature Precipitation Wind Pressure Humidity
    00:00 +12°C° 0 mm 5 mps 746 mmHg 87%
    01:00 +12°C° 0 mm 5 mps 746 mmHg 87%
    02:00 +10°C° 0 mm 5 mps 747 mmHg 87%
    03:00 +11°C° 0 mm 4 mps 747 mmHg 87%
    04:00 +11°C° 0 mm 4 mps 747 mmHg 87%
    05:00 +11°C° 0 mm 4 mps 748 mmHg 88%
    06:00 +12°C° 0 mm 3 mps 748 mmHg 82%
    07:00 +14°C° 0 mm 3 mps 749 mmHg 76%
    08:00 +17°C° 0 mm 3 mps 749 mmHg 70%
    09:00 +18°C° 0 mm 3 mps 749 mmHg 65%
    10:00 +20°C° 0 mm 4 mps 749 mmHg 59%
    11:00 +21°C° 0 mm 4 mps 750 mmHg 54%
    12:00 +22°C° 0 mm 4 mps 750 mmHg 54%
    13:00 +22°C° 0 mm 4 mps 750 mmHg 53%
    14:00 +23°C° 0 mm 4 mps 750 mmHg 52%
    15:00 +22°C° 0 mm 4 mps 750 mmHg 55%
    16:00 +22°C° 0 mm 4 mps 751 mmHg 58%
    17:00 +21°C° 0 mm 4 mps 751 mmHg 61%
    18:00 +20°C° 0 mm 3 mps 751 mmHg 67%
    19:00 +18°C° 0 mm 3 mps 751 mmHg 74%
    20:00 +16°C° 0 mm 3 mps 752 mmHg 81%
    21:00 +14°C° 0 mm 3 mps 752 mmHg 83%
    22:00 +14°C° 0 mm 2 mps 752 mmHg 85%
    23:00 +13°C° 0 mm 2 mps 752 mmHg 87%

    25 June, Monday

    Time Temperature Precipitation Wind Pressure Humidity
    00:00 +13°C° 0 mm 2 mps 752 mmHg 88%
    01:00 +12°C° 0 mm 2 mps 753 mmHg 89%
    02:00 +12°C° 0 mm 2 mps 753 mmHg 90%
    03:00 +12°C° 0 mm 2 mps 753 mmHg 89%
    04:00 +13°C° 0 mm 2 mps 753 mmHg 88%
    05:00 +13°C° 0 mm 1 mps 753 mmHg 88%
    06:00 +15°C° 0 mm 2 mps 753 mmHg 81%
    07:00 +17°C° 0 mm 2 mps 753 mmHg 74%
    08:00 +19°C° 0 mm 2 mps 754 mmHg 68%
    09:00 +20°C° 0 mm 2 mps 754 mmHg 63%
    10:00 +21°C° 0 mm 2 mps 754 mmHg 58%
    11:00 +22°C° 0 mm 3 mps 754 mmHg 53%
    12:00 +22°C° 0 mm 3 mps 754 mmHg 53%
    13:00 +24°C° 0 mm 3 mps 754 mmHg 53%
    14:00 +24°C° 0 mm 3 mps 754 mmHg 53%
    15:00 +24°C° 0 mm 3 mps 754 mmHg 55%
    16:00 +24°C° 0 mm 3 mps 754 mmHg 57%
    17:00 +22°C° 0 mm 3 mps 754 mmHg 59%
    18:00 +21°C° 0 mm 2 mps 754 mmHg 66%
    19:00 +19°C° 0 mm 2 mps 754 mmHg 73%
    20:00 +17°C° 0 mm 2 mps 754 mmHg 79%
    21:00 +16°C° 0 mm 2 mps 754 mmHg 82%
    22:00 +16°C° 0 mm 1 mps 754 mmHg 84%
    23:00 +15°C° 0 mm 1 mps 754 mmHg 87%

    26 June, Tuesday

    Time Temperature Precipitation Wind Pressure Humidity
    00:00 +15°C° 0 mm 1 mps 754 mmHg 88%
    01:00 +14°C° 0 mm 1 mps 754 mmHg 89%
    02:00 +14°C° 0 mm 1 mps 754 mmHg 90%
    03:00 +14°C° 0 mm 1 mps 754 mmHg 89%
    04:00 +15°C° 0 mm 1 mps 754 mmHg 88%
    05:00 +15°C° 0 mm 1 mps 754 mmHg 88%
    06:00 +18°C° 0 mm 1 mps 754 mmHg 80%
    07:00 +20°C° 0 mm 1 mps 754 mmHg 73%
    08:00 +21°C° 0 mm 1 mps 754 mmHg 66%
    09:00 +22°C° 0 mm 1 mps 754 mmHg 61%
    10:00 +23°C° 0 mm 2 mps 754 mmHg 56%
    11:00 +24°C° 0 mm 2 mps 754 mmHg 51%
    12:00 +24°C° 0 mm 2 mps 753 mmHg 51%
    13:00 +25°C° 0 mm 2 mps 753 mmHg 50%
    14:00 +25°C° 0 mm 2 mps 753 mmHg 50%
    15:00 +25°C° 0 mm 2 mps 753 mmHg 52%
    16:00 +25°C° 0 mm 2 mps 753 mmHg 55%
    17:00 +24°C° 0 mm 2 mps 752 mmHg 57%
    18:00 +23°C° 0 mm 2 mps 752 mmHg 62%
    19:00 +20°C° 0 mm 2 mps 752 mmHg 68%
    20:00 +18°C° 0 mm 2 mps 752 mmHg 73%
    21:00 +18°C° 0 mm 2 mps 752 mmHg 74%
    22:00 +17°C° 0 mm 2 mps 753 mmHg 75%
    23:00 +16°C° 0 mm 2 mps 753 mmHg 77%
    Show more